Weather Roundup
Issued by NWS Springfield, MO

Home | Current Version | Previous Version | Text Only | Print | Product List | Glossary On
Versions: 1 2 3 4 5 6 7 8 9 10 11 12 13 14 15 16 17 18 19 20 21 22 23 24 25 26 27 28 29 30 31 32 33 34 35 36 37 38 39 40 41 42 43 44 45 46 47 48 49 50
942
NZUS99 KSGF 201607
HRRSGF

HOURLY WEATHER
NATIONAL WEATHER SERVICE SPRINGFIELD MO
1000 AM CST TUE FEB 20 2018

......SGF CWA......

CITY           SKY/WX    TMP DP  RH WIND       PRES   REMARKS
SPRINGFIELD    PTSUNNY   66  64  93 S20G37    29.85F
JOPLIN         CLOUDY    38  38 100 N6        29.92R WCI  33
WEST PLAINS    CLOUDY    64  61  90 S14G26    30.00S
ROLLA          LGT RAIN  66  61  84 S24G36    29.89F
OSAGE BEACH    CLOUDY    68  62  81 S15G24    29.86S
BRANSON        CLOUDY    66  64  94 SE12G18   29.93F

......SURROUNDING SGF CWA......

CITY           SKY/WX    TMP DP  RH WIND       PRES   REMARKS
CHANUTE        FRZ RAIN  32  31  96 N13G20    30.01R FOG     WCI  22
PARSONS        HVY RAIN  33  32  96 N8        29.99R FOG     WCI  26
COFFEYVILLE    LGT RAIN  35  33  92 N13       29.99R WCI  26
EMPORIA        FRZ RAIN  23  21  92 NW14      30.05R FOG     WCI  11
GROVE OK       DRIZZLE   52  50  93 W3        29.92R
ROGERS AR      CLOUDY    68  60  75 S31G43    29.89F
SILOAM SPRINGS PTSUNNY   67  61  81 S22G35    29.91R
HARRISON AR    LGT RAIN  65  64  97 S13G22    29.95F
NEAR YELLVILLE CLOUDY    68  62  81 S14G21    29.96F

......KANSAS AND MISSOURI......

CITY           SKY/WX    TMP DP  RH WIND       PRES   REMARKS
KANSAS CTY INT LGTSLEET  29  27  92 NW20G25   29.99R FOG     WCI  16
DOWNTOWN KC    LGT SNOW  32  29  88 NW7       30.00R FOG     WCI  26
COLUMBIA       CLOUDY    51  49  92 W21G35    29.86R
SEDALIA        HVY RAIN  34  34 100 N10       29.94F FOG     WCI  26
ST JOSEPH      CLOUDY    26  24  92 NW17      30.02R WCI  13
ST LOUIS       LGT RAIN  66  63  90 S21G28    29.92S
SPIRIT OF STL  CLOUDY    67  62  84 S15G30    29.89F
KIRKSVILLE     FRZ RAIN  33  32  96 CALM      29.93R FOG
WICHITA        CLOUDY    22  19  89 N23       30.07R WCI   6
TOPEKA         CLOUDY    26  23  88 NW16G26   30.03R WCI  14
OLATHE         FRZ RAIN  29  28  96 N13       29.97R FOG     WCI  19

......TENNESSEE......

CITY           SKY/WX    TMP DP  RH WIND       PRES   REMARKS
MEMPHIS        CLOUDY    71  62  73 S18G28    30.15S
NASHVILLE      CLOUDY    74  57  55 S17G28    30.23F

......ARKANSAS.......

CITY           SKY/WX    TMP DP  RH WIND       PRES   REMARKS
FAYETTEVILLE   PTSUNNY   68  65  90 S23G33    29.89F
FT SMITH       CLOUDY    73  61  65 S10       29.91F
LITTLE ROCK    CLOUDY    71  65  81 S12G20    30.08S

......OKLAHOMA.......

CITY           SKY/WX    TMP DP  RH WIND       PRES   REMARKS
TULSA          CLOUDY    40  39  97 N18       29.94R WCI  31
PONCA CITY     CLOUDY    27  23  85 N14       30.07R WCI  16
MCALESTER      CLOUDY    67  63  87 S15G29    29.89S
OKLAHOMA CITY  FRZ RAIN  30  29  96 N25G36    29.98R FOG     WCI  16

......IOWA............

CITY           SKY/WX    TMP DP  RH WIND       PRES   REMARKS
DES MOINES     FLURRIES  26  22  84 NW12      29.98R WCI  16
QUAD CITIES    CLOUDY    38  36  92 W16       29.87R FOG     WCI  29

......ILLINOIS........

CITY           SKY/WX    TMP DP  RH WIND       PRES   REMARKS
QUINCY         LGT RAIN  48  47  96 CALM      29.82F FOG
CHICAGO        CLOUDY    63  58  83 SW20G25   29.84S




USA.gov is the U.S. government's official web portal to all federal, state and local government web resources and services.